Flag for Greenland Weather past 2 weeks in Ittoqqortoormiit, Greenland

Now
31 °F

Fog.


Feels Like: 26 °F
Forecast: 30 / 36 °F
Wind: 5 mph from East

Location: Scoresbysund

Current Time: Sep 2, 2015 at 6:42:50 AM

Latest Report: Sep 2, 2015 at 6:00 AM


Visibility: 3 mi

Pressure: 30.20 "Hg

Humidity: 99%

Dew point: 31 °F

Location of IttoqqortoormiitLocation

Historic Weather in Ittoqqortoormiit — Graph

°F

Ittoqqortoormiit temperature yesterday

Maximum temperature yesterday: 37 °F (at 2:00 PM)
Minimum temperature yesterday: 31 °F (at 11:00 PM)
Average temperature yesterday: 34 °F

Past Weeks' High & Low Weather Summary

 TemperatureHumidityPressure
High49 °F (Aug 20, 11:00 AM)99% (Aug 18, 6:00 AM)30.29 "Hg (Aug 18, 6:00 AM)
Low30 °F (Aug 29, 6:00 AM)41% (Aug 20, 3:00 PM)29.59 "Hg (Aug 18, 6:00 AM)
Average38 °F77%30.03 "Hg
* Reported Aug 18 5:00 AM — Sep 2 5:00 AM, Ittoqqortoormiit, Weather by CustomWeather, © 2015

Note: Actual official high and low records may vary slightly from our data, if they occured in-between our weather recording intervals... More about our weather records

Advertising

Ittoqqortoormiit weather history for previous 24 hours

 ConditionsComfort  
Time TempWeatherWind HumidityBarometerVisibility
5:00 AM
Wed, Sep 2
31 °FLow clouds.7 mph98%30.19 "HgN/A
4:00 AM31 °FSprinkles. Low clouds.9 mph99%30.22 "Hg2 mi
3:00 AM31 °FRain showers. Low clouds.7 mph96%30.23 "Hg2 mi
2:00 AM31 °FOvercast.8 mph92%30.24 "Hg31 mi
1:00 AM32 °FOvercast.6 mph88%30.24 "Hg31 mi
12:00 AM31 °FOvercast.12 mph94%30.25 "Hg31 mi
11:00 PM
Tue, Sep 1
31 °FOvercast.9 mph92%30.27 "Hg31 mi
10:00 PM32 °FOvercast.5 mph88%30.26 "Hg31 mi
8:00 PM34 °FOvercast.3 mph80%30.27 "Hg31 mi
7:00 PM34 °FOvercast.3 mph80%30.27 "Hg31 mi
6:00 PM34 °FOvercast.3 mph80%30.26 "Hg31 mi
5:00 PM35 °FOvercast.5 mph79%30.27 "Hg31 mi
4:00 PM36 °FOvercast.2 mph77%30.27 "Hg31 mi
3:00 PM36 °FOvercast.7 mph79%30.26 "Hg31 mi
2:00 PM37 °FOvercast.8 mph78%30.25 "Hg28 mi
1:00 PM36 °FOvercast.2 mph77%30.25 "Hg28 mi
12:00 PM36 °FPassing clouds.3 mph79%30.24 "Hg28 mi
11:00 AM35 °FPassing clouds.3 mph80%30.23 "Hg31 mi
10:00 AM35 °FPassing clouds.6 mph84%30.23 "Hg31 mi
9:00 AM33 °FPassing clouds.3 mph91%30.22 "Hg28 mi
8:00 AM33 °FPassing clouds.5 mph88%30.20 "Hg31 mi
7:00 AM33 °FSunny.1 mph87%30.19 "Hg31 mi
6:00 AM32 °FSunny.5 mph81%30.17 "Hg31 mi
Weather by CustomWeather, © 2015

See weather overviewHow to use our weather pages